(233521) = 1994 SJ6 = 2005 UC228 = 2007 GU44

Discovered at Kitt Peak on 2007-04-14 by Spacewatch.

Orbit

Orbit type: Main Belt

Note: WebGL enabled browser required.

epoch2023-09-13.0
epoch JD2460200.5
perihelion date2020-12-09.92126
perihelion JD2459193.42126
argument of perihelion (°)3.25760
ascending node (°)146.01495
inclination (°)1.74210
eccentricity0.1011452
perihelion distance (AU)2.0948366
Tisserand w.r.t. Jupiter3.6
ΔV w.r.t. Earth (km/sec)9.0
semimajor axis (AU)2.3305618
mean anomaly (°)278.98210
mean daily motion (°/day)0.27702110
aphelion distance (AU)2.566
period (years)3.56
P-vector [x]-0.85959291
P-vector [y]0.46812466
P-vector [z]0.20483978
Q-vector [x]-0.51069684
Q-vector [y]-0.80039664
Q-vector [z]-0.31393305
absolute magnitude17.92
phase slope0.15
uncertainty0
referenceMPEC 2024-A124
observations used171
oppositions14
arc length (days)10696
first opposition used1994
last opposition used2024
residual rms (arc-secs)0.84
perturbers coarse indicatorM-v
perturbers precise indicator003Ek
first observation date used1994-09-28.0
last observation date used2024-01-10.0
computer nameMPCLINUX
JD of orbit computation2456819.563971
perihelion JD uncertainty (days)1.7093E-04
argument of perihelion uncertainty (°)3.0813E-04
ascending node uncertainty (°)3.0392E-04
inclination uncertainty (°)6.5761E-06
eccentricity uncertainty 6.0975E-08
perihelion distance uncertainty (AU)1.3863E-07
Minimum Orbit Intersection Distances (in AU)
for orbit epoch: 2460200.5, reference: E2024-AC4
Mercury1.72773
Venus1.37779
Earth1.10459
Mars0.43264
Jupiter2.42238
Saturn6.79891
Uranus16.3404
Neptune27.3565

Observations

174 total observations over interval: 1994 09 28.22420 – 2024 01 10.250388
These data are available for download (format description).

Date (UT) J2000 RA J2000 Dec Magn Location Ref
1994 09 28.22420 00 45 29.05 +02 45 19.8   691 – Steward Observatory, Kitt Peak-Spacewatch MPC 24177
1994 09 28.25305 00 45 27.39 +02 45 08.2 21.3 V 691 – Steward Observatory, Kitt Peak-Spacewatch MPC 24177
1994 09 28.27940 00 45 25.89 +02 44 58.4   691 – Steward Observatory, Kitt Peak-Spacewatch MPC 24177
1994 10 04.26635 00 39 52.28 +02 05 48.6 20.9 V 691 – Steward Observatory, Kitt Peak-Spacewatch MPC 24177
1994 10 04.28937 00 39 50.95 +02 05 38.9   691 – Steward Observatory, Kitt Peak-Spacewatch MPC 24177
1994 10 04.31408 00 39 49.37 +02 05 30.1   691 – Steward Observatory, Kitt Peak-Spacewatch MPC 24177
1996 02 14.45612 11 22 44.38 +04 43 58.5 20.7 V 691 – Steward Observatory, Kitt Peak-Spacewatch MPS 208192
1996 02 14.47744 11 22 43.52 +04 44 05.2   691 – Steward Observatory, Kitt Peak-Spacewatch MPS 208192
2003 01 30.32821 09 55 10.53 +12 13 49.2 21.2 V 291 – LPL/Spacewatch II MPS 208192
2003 01 30.35187 09 55 09.29 +12 13 56.7 21.0 V 291 – LPL/Spacewatch II MPS 208192
2003 01 30.37964 09 55 07.87 +12 14 05.8 20.8 V 291 – LPL/Spacewatch II MPS 208192
2003 02 22.21660 09 33 54.42 +14 30 16.6 20.2   644 – Palomar Mountain/NEAT MPS 208192
2003 02 22.29785 09 33 49.74 +14 30 44.5 20.3   644 – Palomar Mountain/NEAT MPS 208192
2003 02 22.36554 09 33 45.88 +14 31 07.5 20.8   644 – Palomar Mountain/NEAT MPS 208192
2005 10 25.31406 03 38 49.12 +16 33 29.6 21.6 V 691 – Steward Observatory, Kitt Peak-Spacewatch MPS 149848
2005 10 25.33132 03 38 48.31 +16 33 26.5 21.0 V 691 – Steward Observatory, Kitt Peak-Spacewatch MPS 149848
2005 10 25.34864 03 38 47.49 +16 33 22.9 21.2 V 691 – Steward Observatory, Kitt Peak-Spacewatch MPS 149848
2005 10 29.26441 03 35 35.47 +16 19 23.7 21.0 V 691 – Steward Observatory, Kitt Peak-Spacewatch MPS 149848
2005 10 29.28288 03 35 34.49 +16 19 19.9 21.1 V 691 – Steward Observatory, Kitt Peak-Spacewatch MPS 149848
2005 10 29.30011 03 35 33.55 +16 19 16.4 20.9 V 691 – Steward Observatory, Kitt Peak-Spacewatch MPS 149848
2005 11 10.24774 03 23 59.93 +15 31 40.2 20.5 V 691 – Steward Observatory, Kitt Peak-Spacewatch MPS 208192
2005 11 10.26507 03 23 58.86 +15 31 36.0 20.4 V 691 – Steward Observatory, Kitt Peak-Spacewatch MPS 208192
2005 11 10.28239 03 23 57.68 +15 31 31.5 20.7 V 691 – Steward Observatory, Kitt Peak-Spacewatch MPS 208192
2007 04 14.34779 15 01 54.29 -14 10 12.4 21.0 V 691 – Steward Observatory, Kitt Peak-Spacewatch MPS 207048
2007 04 14.36541 15 01 53.46 -14 10 08.1 21.1 V 691 – Steward Observatory, Kitt Peak-Spacewatch MPS 207048
2007 04 14.38303 15 01 52.62 -14 10 03.9 21.0 V 691 – Steward Observatory, Kitt Peak-Spacewatch MPS 207048
2007 04 18.32510 14 58 45.07 -13 53 07.9 20.8 V 691 – Steward Observatory, Kitt Peak-Spacewatch MPS 207048
2007 04 18.34271 14 58 44.15 -13 53 03.5 20.8 V 691 – Steward Observatory, Kitt Peak-Spacewatch MPS 207048
2007 04 18.36033 14 58 43.22 -13 52 58.7 21.3 V 691 – Steward Observatory, Kitt Peak-Spacewatch MPS 207048
2007 04 22.32640 14 55 16.05 -13 34 56.9 20.5 V 691 – Steward Observatory, Kitt Peak-Spacewatch MPS 208192
2007 04 22.34597 14 55 14.96 -13 34 51.5 20.7 V 691 – Steward Observatory, Kitt Peak-Spacewatch MPS 208192
2007 04 22.36556 14 55 13.83 -13 34 46.1 20.9 V 691 – Steward Observatory, Kitt Peak-Spacewatch MPS 208192
2007 04 26.30474 14 51 34.72 -13 16 15.5 21.2 V 691 – Steward Observatory, Kitt Peak-Spacewatch MPS 208192
2007 04 26.32235 14 51 33.67 -13 16 10.4 21.0 V 691 – Steward Observatory, Kitt Peak-Spacewatch MPS 208192
2007 04 26.33997 14 51 32.63 -13 16 05.0 21.4 V 691 – Steward Observatory, Kitt Peak-Spacewatch MPS 208192
2010 01 13.76450 08 27 19.88 +17 39 11.5 19.7 R D29 – Purple Mountain Observatory, XuYi Station MPS 311201
2010 01 13.77771 08 27 19.09 +17 39 14.5 19.3 R D29 – Purple Mountain Observatory, XuYi Station MPS 311201
2010 01 13.79209 08 27 18.23 +17 39 17.6 19.4 R D29 – Purple Mountain Observatory, XuYi Station MPS 311201
2010 01 13.80615 08 27 17.53 +17 39 21.7 18.2 R D29 – Purple Mountain Observatory, XuYi Station MPS 311201
2010 02 09.21980 08 01 04.33 +19 32 44.3 20.6 V G96 – Mt. Lemmon Survey MPS 313348
2010 02 09.22520 08 01 04.08 +19 32 45.2 20.2 V G96 – Mt. Lemmon Survey MPS 313348
2010 02 09.23059 08 01 03.79 +19 32 46.5 20.3 V G96 – Mt. Lemmon Survey MPS 313348
2010 02 09.23589 08 01 03.50 +19 32 47.8 20.5 V G96 – Mt. Lemmon Survey MPS 313348
2010 02 09.25367 08 01 02.56 +19 32 51.5 20.4 V G96 – Mt. Lemmon Survey MPS 313348
2010 02 09.25910 08 01 02.31 +19 32 52.8 20.1 V G96 – Mt. Lemmon Survey MPS 313348
2010 02 09.26449 08 01 02.02 +19 32 54.0 20.3 V G96 – Mt. Lemmon Survey MPS 313348
2010 02 09.26985 08 01 01.74 +19 32 55.3 20.3 V G96 – Mt. Lemmon Survey MPS 313348
2010 04 16.433483 08 19 14.24 +19 46 48.3   C51 – WISE MPS 324808
2010 04 16.565787 08 19 24.09 +19 46 19.6   C51 – WISE MPS 324808
2010 04 16.698090 08 19 33.70 +19 45 52.5   C51 – WISE MPS 324808
2010 04 16.830395 08 19 43.52 +19 45 28.0   C51 – WISE MPS 324808
2010 04 16.962699 08 19 53.32 +19 44 59.4   C51 – WISE MPS 324808
2010 04 17.028914 08 19 58.094 +19 44 46.72   C51 – WISE MPS 903615
2010 04 17.095003 08 20 03.362 +19 44 34.98   C51 – WISE MPS 903615
2010 04 17.16122 08 20 08.02 +19 44 19.8   C51 – WISE MPS 324808
2010 04 17.227308 08 20 13.02 +19 44 08.0   C51 – WISE MPS 324808
2010 04 17.227435 08 20 12.97 +19 44 05.1   C51 – WISE MPS 324808
2010 04 17.293523 08 20 17.91 +19 43 52.4   C51 – WISE MPS 324808
2010 04 17.425828 08 20 27.79 +19 43 25.7   C51 – WISE MPS 324808
2010 04 17.558132 08 20 37.73 +19 42 58.3   C51 – WISE MPS 324808
2010 04 17.690436 08 20 47.54 +19 42 30.0   C51 – WISE MPS 324808
2010 04 17.756652 08 20 52.706 +19 42 15.55   C51 – WISE MPS 903615
2010 04 17.822867 08 20 57.540 +19 42 03.31   C51 – WISE MPS 903615
2010 04 17.888956 08 21 02.448 +19 41 49.20   C51 – WISE MPS 903615
2010 04 17.955044 08 21 07.714 +19 41 34.51   C51 – WISE MPS 903615
2010 04 17.955171 08 21 07.380 +19 41 35.52   C51 – WISE MPS 903615
2010 04 18.087348 08 21 17.39 +19 41 08.0   C51 – WISE MPS 324808
2010 04 18.219653 08 21 27.41 +19 40 39.2   C51 – WISE MPS 324808
2010 04 18.219780 08 21 27.17 +19 40 38.6   C51 – WISE MPS 324808
2012 11 04.27655 02 16 00.87 +10 38 37.8 20.9 V G96 – Mt. Lemmon Survey MPS 441334
2012 11 04.28362 02 16 00.48 +10 38 35.4 20.9 V G96 – Mt. Lemmon Survey MPS 441334
2012 11 04.29065 02 16 00.01 +10 38 33.5 20.8 V G96 – Mt. Lemmon Survey MPS 441334
2012 11 04.29859 02 15 59.50 +10 38 30.7 20.5 V G96 – Mt. Lemmon Survey MPS 441334
2012 11 13.33267 02 07 25.42 +09 54 21.1 21.4 V G96 – Mt. Lemmon Survey MPS 443190
2012 11 13.33406 02 07 25.39 +09 54 21.2 20.9 V G96 – Mt. Lemmon Survey MPS 443190
2012 11 13.33548 02 07 25.28 +09 54 20.6 20.7 V G96 – Mt. Lemmon Survey MPS 443190
2012 11 13.33685 02 07 25.21 +09 54 20.3 21.3 V G96 – Mt. Lemmon Survey MPS 443190
2014 04 24.35074 13 26 20.628 -06 02 39.29 20.2 w F51 – Pan-STARRS 1, Haleakala MPS 512195
2014 04 24.36199 13 26 20.021 -06 02 35.75 20.3 w F51 – Pan-STARRS 1, Haleakala MPS 512195
2014 04 24.37324 13 26 19.405 -06 02 32.07 20.3 w F51 – Pan-STARRS 1, Haleakala MPS 512195
2014 04 24.38452 13 26 18.815 -06 02 28.62 20.1 w F51 – Pan-STARRS 1, Haleakala MPS 512195
2014 04 25.32364 13 25 30.36 -05 57 35.3 19.8 V G96 – Mt. Lemmon Survey MPS 512195
2014 04 25.33029 13 25 30.00 -05 57 33.2 20.0 V G96 – Mt. Lemmon Survey MPS 512195
2014 04 25.33693 13 25 29.67 -05 57 31.1 20.1 V G96 – Mt. Lemmon Survey MPS 512195
2014 04 25.34357 13 25 29.30 -05 57 29.1 19.9 V G96 – Mt. Lemmon Survey MPS 512195
2014 05 18.28242 13 11 42.193 -04 41 05.06 21.0 w F51 – Pan-STARRS 1, Haleakala MPS 516201
2014 05 18.29367 13 11 41.955 -04 41 04.44 21.1 w F51 – Pan-STARRS 1, Haleakala MPS 516201
2014 05 18.30493 13 11 41.730 -04 41 03.48 21.0 w F51 – Pan-STARRS 1, Haleakala MPS 516201
2014 05 18.31619 13 11 41.501 -04 41 02.67 21.0 w F51 – Pan-STARRS 1, Haleakala MPS 516201
2015 09 18.14701 22 00 18.18 -12 48 27.3 20.8 V G96 – Mt. Lemmon Survey MPS 631282
2015 09 18.15212 22 00 17.96 -12 48 28.9 20.6 V G96 – Mt. Lemmon Survey MPS 631282
2015 09 18.15723 22 00 17.72 -12 48 29.7 21.4 V G96 – Mt. Lemmon Survey MPS 631282
